Wind_Speed
26 27 28 29 31 31 33 31 29 30 29 28 25 11 7 6 4 2 5 7 6 9 10 10 10 10 20 13 17 21 26 21 10 13 21 20 22 26 19 18 13 10 12 19
29 31 32 33 33 34 31 30 30 28 27 21 15 9 9 6 4 4 6 9 9 11 11 11 8 6 11 16 20 17 26 20 7 11 19 20 24 24 25 19 13 11 11 22
33 36 35 35 35 31 29 26 26 24 20 11 12 7 6 6 4 6 8 10 10 11 12 10 8 7 6 14 19 19 24 18 5 12 18 21 22 19 23 18 15 15 17 18
38 38 38 34 31 29 27 26 22 18 13 12 10 8 9 9 11 6 9 10 9 12 14 14 11 6 7 2 6 15 19 15 3 8 16 22 22 22 21 18 17 19 24 18
35 36 35 32 29 27 25 22 16 14 12 11 10 12 12 14 16 14 11 12 14 15 17 17 16 10 9 11 11 19 17 14 15 4 12 18 24 23 24 22 19 23 22 19
36 36 33 30 27 26 22 16 13 12 11 12 13 13 15 16 19 21 20 21 22 22 21 19 17 16 12 15 15 8 8 5 12 17 6 14 20 26 27 25 24 19 22 23
35 34 31 27 25 20 17 16 15 14 14 16 16 16 18 21 22 26 27 27 27 27 26 21 20 19 15 17 22 14 7 12 12 17 12 7 18 21 27 27 27 25 24 25
33 31 29 24 19 16 16 16 17 17 16 17 19 21 23 25 27 29 29 30 30 31 31 29 25 25 23 19 23 19 17 11 5 12 11 11 11 22 25 29 28 27 25 27
29 27 23 17 18 19 16 16 17 18 19 20 22 25 28 27 28 29 30 31 31 32 35 36 30 32 28 28 24 28 30 19 15 16 16 17 15 13 25 30 31 27 27 28
26 22 18 20 18 16 16 17 18 20 23 25 27 28 30 32 34 36 36 36 37 38 39 40 40 38 37 31 29 27 32 29 23 22 19 18 14 11 15 34 34 30 30 25
24 22 19 17 16 17 18 20 22 24 26 29 32 35 37 38 40 41 42 42 44 45 44 45 44 43 42 41 41 37 38 41 39 32 23 22 14 12 8 27 35 32 31 31
19 15 15 16 20 22 22 25 27 29 32 35 38 41 44 46 47 48 48 47 49 50 52 52 50 45 43 43 43 40 40 42 40 38 27 18 14 23 27 36 38 37 34 36
19 19 18 23 26 26 27 31 32 35 38 41 44 46 47 49 50 54 55 55 55 55 56 56 53 49 43 39 41 39 39 43 43 37 32 26 25 28 32 22 29 44 39 41
20 21 26 28 28 31 34 36 39 43 44 44 47 49 52 53 54 58 60 62 61 59 56 55 52 47 43 44 42 43 38 41 43 35 35 35 35 32 34 39 31 35 43 45
25 27 28 30 34 37 39 42 45 46 48 50 52 54 57 60 60 60 60 59 59 59 56 56 53 48 46 45 45 45 44 44 47 44 42 42 42 45 40 30 31 35 39 47
27 30 34 36 38 40 43 48 49 52 55 57 57 59 60 60 61 62 60 58 54 53 53 51 53 55 55 50 46 48 49 47 51 53 50 48 50 44 48 43 33 36 44 49
34 36 38 41 43 44 48 53 56 57 59 60 58 55 54 57 61 66 67 65 64 64 62 61 61 61 59 56 50 45 49 53 54 56 59 55 53 53 51 52 49 37 39 41
38 41 42 45 49 49 53 56 58 59 59 55 52 54 58 61 64 67 70 70 68 67 66 65 65 64 65 63 61 55 50 50 57 61 64 68 64 60 59 58 52 46 40 42
41 44 46 50 52 53 55 58 59 56 52 57 61 63 67 68 71 73 68 69 69 70 69 69 68 67 68 70 67 64 61 57 59 62 66 72 75 70 64 60 54 44 44 43
45 48 50 52 54 55 57 59 54 52 54 62 65 69 69 75 79 81 82 80 80 78 77 76 76 75 73 75 72 70 69 65 65 66 66 71 79 79 77 70 63 53 49 43
49 51 53 55 58 57 56 52 53 57 63 68 71 72 79 82 84 86 84 81 78 77 76 75 74 75 76 77 78 76 76 73 71 68 72 74 76 86 85 83 75 67 60 48
51 52 55 57 56 51 51 54 60 63 66 70 73 80 82 86 83 72 65 60 58 56 55 54 54 56 58 60 63 65 67 75 80 77 76 78 81 82 88 89 87 80 73 60
52 54 54 53 48 51 56 59 61 67 70 74 80 84 86 77 64 58 52 49 48 48 47 47 44 44 47 50 53 52 55 59 69 79 84 85 87 90 90 93 92 91 87 77
52 52 47 47 52 56 60 62 66 69 74 80 83 86 71 59 54 50 46 44 43 42 41 41 43 44 47 49 49 50 52 51 54 66 80 88 85 86 91 92 93 88 87 78
44 41 46 51 53 59 64 65 68 74 77 82 80 66 55 50 46 41 39 39 35 39 43 45 45 46 44 41 47 50 51 51 49 54 66 80 87 87 86 91 91 91 91 81
40 45 48 53 59 64 66 69 73 74 80 72 56 50 47 39 29 31 31 35 36 39 44 45 45 42 43 43 41 44 51 49 47 49 55 63 75 86 86 86 91 92 91 89
Wind_Direction
268 272 276 281 286 291 296 297 296 293 294 296 297 267 211 201 226 333 348 323 350 344 338 344 17 11 343 320 338 339 349 337 324 204 193 183 171 166 180 198 227 241 241 218
269 277 282 283 286 293 293 295 291 292 291 286 278 207 200 215 261 333 329 330 346 341 338 332 358 341 308 355 354 340 350 346 307 207 195 190 185 173 183 203 207 217 207 183
270 274 278 281 285 287 289 289 289 288 279 254 245 223 244 250 292 317 319 320 328 330 329 319 335 332 333 26 355 1 4 354 286 197 190 204 200 204 191 197 194 213 179 178
270 273 275 277 281 285 286 286 283 260 245 234 235 253 266 282 288 288 285 295 314 317 312 308 309 309 284 59 340 335 18 14 338 207 203 205 215 215 199 198 204 198 185 190
265 267 271 277 283 281 280 276 263 245 242 236 227 251 264 284 288 291 283 284 296 300 300 303 296 295 277 273 291 352 360 35 33 201 206 208 214 217 208 199 194 196 195 190
263 267 273 275 273 273 274 250 238 244 244 251 254 260 275 285 291 294 296 298 299 298 300 302 292 291 289 280 277 234 279 354 344 19 312 229 210 217 221 211 208 207 202 199
260 263 266 268 267 256 241 228 235 241 242 252 263 271 277 281 286 291 296 299 299 302 301 297 290 282 275 275 278 258 248 284 307 317 340 280 242 223 214 217 224 224 208 208
259 261 263 261 243 225 226 234 239 240 244 255 267 276 279 284 289 291 294 295 298 298 296 293 292 287 281 271 271 259 260 251 303 293 304 309 306 246 226 220 221 221 220 213
255 253 253 238 221 223 230 236 244 252 259 264 270 277 280 283 284 285 287 289 288 286 286 291 292 284 284 272 264 272 253 251 265 273 274 287 301 271 242 228 223 222 216 216
244 237 223 224 228 233 236 248 259 266 274 279 281 281 283 284 283 284 284 283 283 282 284 286 286 287 283 268 253 260 252 255 239 242 256 274 285 255 251 235 224 219 213 215
235 221 218 226 234 242 253 262 269 274 277 280 283 287 285 285 286 285 286 287 287 286 286 285 285 283 278 272 261 260 260 256 260 249 266 266 260 209 262 246 228 225 215 218
228 224 228 238 247 253 260 268 272 274 278 281 285 289 291 292 290 289 288 287 286 288 289 288 286 283 281 276 270 262 257 254 250 257 261 228 210 185 182 222 227 222 225 217
224 229 238 249 256 262 269 276 281 286 286 287 288 288 289 289 289 290 290 289 287 286 286 285 285 282 278 269 267 263 255 250 248 247 246 234 221 206 207 215 226 221 224 222
233 240 246 254 265 272 276 279 282 282 283 285 286 288 288 288 288 287 287 287 287 284 282 281 279 277 271 268 264 259 248 248 247 234 234 223 225 214 226 225 225 229 229 222
247 254 264 268 269 271 277 283 283 286 288 289 288 288 289 288 286 284 284 283 283 282 279 275 271 265 265 264 260 256 250 241 238 233 227 222 229 234 228 219 225 231 231 229
264 269 270 276 281 288 292 288 290 290 291 291 291 291 291 290 290 289 287 283 279 275 271 268 268 272 270 264 260 257 254 244 238 232 221 219 227 225 219 217 218 222 226 226
268 274 280 284 287 288 288 291 292 292 293 294 294 294 297 299 295 291 288 285 281 278 275 273 273 272 271 269 265 258 253 251 243 235 228 221 223 231 229 220 215 225 226 226
270 276 281 282 284 287 290 290 292 294 294 292 290 293 295 296 301 298 288 286 284 281 278 276 273 271 269 267 265 260 250 242 242 239 232 227 224 229 226 228 224 223 226 229
273 277 279 282 285 288 289 291 293 292 293 291 292 295 299 298 299 295 290 283 281 279 276 274 270 267 264 263 261 257 253 244 234 234 234 231 229 227 223 224 225 221 223 222
276 280 284 287 288 290 292 294 292 290 293 295 297 298 298 297 297 295 292 287 282 277 274 271 269 267 264 262 259 256 252 245 237 231 229 230 227 225 225 223 220 222 219 224
281 285 289 292 293 294 295 293 292 294 295 296 298 299 300 298 296 293 289 285 281 279 277 274 271 269 266 264 262 257 252 246 239 233 229 226 228 226 223 222 223 221 218 220
286 289 292 294 294 295 294 296 296 296 297 298 301 303 302 301 298 296 292 289 285 282 278 274 270 266 265 262 260 258 252 244 239 232 227 227 223 225 225 223 223 226 221 220
289 293 293 294 294 298 298 299 300 301 301 303 304 305 305 303 301 298 297 294 291 289 287 284 279 271 265 263 262 258 256 247 241 232 229 226 224 222 222 222 223 225 227 224
292 293 293 296 298 300 301 304 303 304 305 306 307 306 305 301 297 296 294 293 294 295 293 288 281 275 272 267 261 258 255 248 240 234 230 227 229 227 222 222 223 223 224 225
290 291 295 297 300 301 305 306 305 307 307 306 306 304 304 304 304 305 305 304 309 302 301 301 300 295 284 267 263 259 253 248 240 234 230 228 227 227 224 222 222 223 222 222
292 294 295 299 301 303 305 307 311 309 308 306 304 303 302 305 310 312 314 313 303 305 303 313 302 297 287 282 271 254 252 249 242 234 230 229 224 227 226 223 219 220 221 222
Height
10957 10957 10958 10958 10958 10958 10957 10955 10953 10951 10949 10947 10946 10946 10946 10948 10949 10949 10949 10948 10946 10943 10940 10940 10939 10935 10930 10928 10925 10925 10923 10918 10917 10920 10921 10924 10928 10932 10938 10940 10944 10946 10946 10950
10953 10952 10952 10952 10952 10953 10951 10950 10946 10945 10943 10942 10940 10944 10944 10945 10945 10946 10945 10944 10943 10941 10938 10938 10937 10935 10929 10927 10925 10924 10920 10916 10915 10918 10921 10924 10929 10932 10934 10938 10941 10943 10943 10946
10947 10947 10946 10947 10947 10947 10946 10944 10942 10940 10938 10938 10938 10940 10940 10940 10942 10944 10943 10942 10941 10940 10937 10936 10935 10932 10929 10927 10925 10922 10918 10916 10914 10915 10918 10921 10926 10930 10934 10937 10940 10942 10944 10947
10940 10940 10940 10942 10941 10941 10940 10938 10937 10935 10935 10936 10936 10935 10935 10937 10937 10941 10941 10940 10940 10938 10936 10934 10934 10931 10925 10924 10923 10922 10919 10919 10918 10917 10917 10918 10924 10929 10934 10936 10938 10940 10944 10945
10933 10932 10933 10936 10936 10935 10934 10933 10933 10933 10934 10934 10934 10933 10934 10934 10934 10936 10938 10938 10936 10935 10934 10933 10930 10930 10928 10926 10924 10921 10921 10922 10920 10917 10915 10916 10918 10924 10930 10933 10935 10938 10941 10942
10926 10925 10928 10930 10930 10929 10929 10928 10929 10931 10932 10932 10931 10932 10932 10932 10931 10930 10932 10932 10931 10930 10930 10930 10928 10928 10928 10927 10924 10922 10922 10922 10921 10919 10917 10916 10914 10918 10923 10929 10933 10935 10937 10940
10918 10920 10920 10923 10924 10923 10924 10924 10926 10928 10929 10928 10929 10929 10929 10927 10927 10925 10925 10925 10924 10923 10922 10922 10921 10921 10924 10925 10922 10923 10921 10920 10918 10917 10916 10914 10915 10916 10920 10924 10931 10934 10936 10938
10910 10912 10914 10917 10917 10919 10920 10922 10923 10925 10926 10926 10925 10925 10925 10924 10922 10920 10918 10918 10917 10915 10913 10913 10915 10913 10915 10917 10917 10917 10916 10915 10912 10913 10914 10913 10915 10916 10918 10923 10927 10932 10935 10936
10904 10906 10908 10910 10912 10914 10917 10919 10920 10921 10922 10922 10923 10921 10920 10919 10918 10916 10914 10913 10912 10909 10906 10905 10910 10905 10906 10906 10908 10906 10908 10908 10909 10908 10909 10910 10912 10914 10917 10920 10923 10927 10931 10933
10897 10900 10903 10906 10909 10911 10912 10914 10916 10916 10916 10916 10916 10915 10914 10912 10910 10908 10907 10906 10905 10901 10900 10899 10897 10897 10896 10898 10897 10899 10899 10901 10903 10903 10906 10908 10910 10907 10908 10914 10917 10920 10924 10929
10893 10896 10900 10903 10906 10907 10907 10908 10909 10911 10911 10910 10908 10906 10904 10903 10901 10899 10897 10896 10893 10890 10890 10889 10887 10887 10885 10885 10887 10891 10890 10892 10892 10896 10899 10904 10902 10896 10899 10908 10912 10916 10917 10922
10891 10895 10899 10900 10900 10901 10902 10902 10903 10903 10903 10901 10899 10896 10894 10890 10888 10885 10884 10883 10881 10878 10874 10874 10875 10876 10874 10871 10870 10876 10880 10882 10883 10887 10892 10895 10894 10892 10895 10903 10905 10905 10910 10914
10888 10892 10893 10894 10894 10895 10895 10894 10894 10894 10893 10891 10888 10886 10883 10880 10877 10872 10868 10867 10866 10865 10860 10858 10859 10861 10861 10860 10859 10862 10865 10869 10872 10877 10883 10887 10889 10886 10885 10889 10888 10890 10896 10903
10884 10886 10887 10888 10888 10888 10887 10887 10886 10883 10882 10881 10876 10875 10870 10868 10865 10860 10856 10850 10848 10847 10846 10845 10843 10843 10843 10844 10844 10847 10853 10853 10857 10865 10873 10876 10876 10873 10873 10878 10879 10883 10887 10890
10877 10878 10880 10881 10881 10880 10880 10875 10873 10871 10868 10866 10865 10861 10856 10851 10849 10845 10842 10839 10834 10829 10827 10827 10828 10829 10827 10829 10828 10830 10834 10839 10842 10850 10858 10864 10863 10864 10866 10868 10870 10873 10878 10884
10871 10871 10871 10870 10870 10869 10866 10859 10860 10857 10853 10850 10848 10844 10838 10836 10830 10823 10822 10820 10816 10812 10810 10810 10808 10808 10809 10813 10816 10817 10818 10824 10827 10833 10842 10849 10852 10852 10856 10860 10861 10863 10866 10872
10861 10861 10861 10860 10858 10858 10855 10848 10845 10842 10837 10833 10830 10826 10821 10816 10811 10804 10799 10798 10795 10792 10791 10790 10790 10789 10789 10792 10798 10803 10804 10807 10811 10816 10823 10829 10835 10839 10844 10848 10850 10853 10856 10859
10853 10852 10852 10851 10847 10848 10843 10836 10832 10827 10822 10816 10811 10808 10804 10800 10793 10786 10777 10772 10770 10768 10766 10766 10767 10767 10766 10769 10773 10780 10786 10789 10792 10798 10803 10810 10817 10821 10826 10832 10838 10841 10843 10847
10845 10844 10843 10840 10837 10835 10829 10823 10817 10811 10808 10798 10794 10787 10781 10775 10771 10762 10758 10752 10747 10744 10742 10741 10741 10743 10742 10741 10746 10752 10757 10764 10771 10775 10784 10790 10797 10805 10810 10815 10822 10826 10831 10834
10836 10834 10831 10828 10824 10820 10813 10807 10802 10797 10792 10783 10776 10769 10762 10755 10746 10733 10726 10722 10717 10715 10715 10713 10713 10715 10716 10713 10719 10725 10730 10737 10742 10750 10757 10765 10773 10782 10791 10798 10805 10812 10818 10824
10824 10822 10817 10811 10807 10803 10797 10793 10788 10783 10775 10766 10757 10748 10739 10729 10718 10707 10697 10690 10686 10682 10679 10679 10681 10683 10683 10683 10686 10695 10700 10708 10714 10725 10733 10740 10748 10756 10767 10777 10786 10796 10805 10812
10811 10808 10803 10798 10792 10789 10784 10780 10773 10765 10755 10746 10736 10725 10714 10700 10686 10676 10668 10662 10658 10657 10656 10656 10657 10655 10655 10655 10656 10659 10666 10669 10678 10696 10703 10712 10720 10730 10743 10755 10766 10776 10787 10798
10798 10794 10789 10784 10778 10775 10770 10764 10754 10745 10734 10723 10713 10699 10687 10673 10663 10654 10650 10644 10640 10638 10636 10634 10637 10637 10635 10634 10634 10638 10636 10644 10650 10665 10678 10683 10691 10702 10713 10727 10742 10756 10766 10778
10786 10781 10776 10771 10766 10759 10752 10747 10737 10726 10715 10702 10690 10676 10664 10657 10647 10641 10635 10629 10625 10622 10619 10618 10617 10616 10616 10614 10616 10617 10615 10619 10627 10637 10647 10658 10675 10686 10697 10705 10717 10732 10749 10760
10775 10770 10765 10759 10754 10744 10736 10731 10721 10710 10698 10684 10670 10657 10649 10642 10633 10626 10621 10616 10613 10609 10605 10602 10598 10594 10592 10595 10595 10595 10598 10600 10606 10613 10621 10632 10646 10657 10673 10688 10699 10712 10727 10741
10763 10759 10754 10747 10739 10731 10722 10712 10705 10692 10677 10664 10654 10644 10637 10633 10627 10620 10615 10609 10605 10601 10595 10590 10584 10579 10575 10574 10574 10574 10577 10582 10590 10596 10602 10610 10622 10632 10649 10664 10679 10692 10704 10722